When you browse on this site, cookies collect data to enhance your experience and personalize the content and advertising you see.
Visit our Privacy Policy to learn more. By continuing to use the site, you agree to this use of cookies and data.
  • en France
  • Liste des pays
  • À 7 jours
  • Température de l'eau
  • Carte météo
  • Widgets météo
  • user-avatar
    Se connecter

    Météo par heure à Malanje

    Ce jour, 20 Février, Jeudi

    Heure Température Précipitation Vent Pression Humidité
    00:00 +18°C° 0 mm 0 m/s 665 mmHg 97%
    01:00 +18°C° 0 mm 0 m/s 665 mmHg 96%
    02:00 +18°C° 0.1 mm 0 m/s 664 mmHg 96%
    03:00 +18°C° 0.1 mm 0 m/s 664 mmHg 96%
    04:00 +18°C° 0.1 mm 0 m/s 664 mmHg 96%
    05:00 +18°C° 0.1 mm 0 m/s 664 mmHg 96%
    06:00 +20°C° 0.1 mm 1 m/s 665 mmHg 96%
    07:00 +20°C° 0.1 mm 1 m/s 665 mmHg 96%
    08:00 +22°C° 0 mm 1 m/s 665 mmHg 89%
    09:00 +24°C° 0 mm 1 m/s 666 mmHg 82%
    10:00 +26°C° 0 mm 2 m/s 666 mmHg 75%
    11:00 +26°C° 1.2 mm 1 m/s 666 mmHg 78%
    12:00 +26°C° 1.2 mm 1 m/s 665 mmHg 80%
    13:00 +26°C° 1.2 mm 1 m/s 665 mmHg 83%
    14:00 +27°C° 0.9 mm 1 m/s 664 mmHg 83%
    15:00 +27°C° 0.9 mm 1 m/s 663 mmHg 82%
    16:00 +27°C° 0.9 mm 1 m/s 663 mmHg 82%
    17:00 +25°C° 0.2 mm 1 m/s 663 mmHg 85%
    18:00 +24°C° 0.2 mm 1 m/s 663 mmHg 89%
    19:00 +20°C° 0.2 mm 0 m/s 663 mmHg 92%
    20:00 +20°C° 0 mm 0 m/s 663 mmHg 92%
    21:00 +20°C° 0 mm 0 m/s 664 mmHg 92%
    22:00 +19°C° 0 mm 0 m/s 664 mmHg 92%
    23:00 +19°C° 0 mm 0 m/s 664 mmHg 93%

    Demain, 21 Février, Vendredi

    Heure Température Précipitation Vent Pression Humidité
    00:00 +19°C° 0 mm 0 m/s 664 mmHg 93%
    01:00 +19°C° 0 mm 0 m/s 664 mmHg 94%
    02:00 +19°C° 0 mm 0 m/s 663 mmHg 95%
    03:00 +20°C° 0 mm 1 m/s 663 mmHg 95%
    04:00 +20°C° 0 mm 1 m/s 663 mmHg 96%
    05:00 +19°C° 0 mm 0 m/s 663 mmHg 96%
    06:00 +19°C° 0 mm 0 m/s 664 mmHg 95%
    07:00 +19°C° 0 mm 0 m/s 665 mmHg 94%
    14:00 +29°C° 1 mm 0 m/s 665 mmHg 68%
    15:00 +27°C° 1 mm 0 m/s 664 mmHg 73%
    16:00 +28°C° 1 mm 1 m/s 663 mmHg 78%
    17:00 +27°C° 1 mm 1 m/s 663 mmHg 82%
    18:00 +25°C° 1 mm 1 m/s 663 mmHg 86%
    19:00 +24°C° 1 mm 1 m/s 663 mmHg 91%
    20:00 +23°C° 0.4 mm 1 m/s 663 mmHg 92%
    21:00 +23°C° 0.4 mm 1 m/s 664 mmHg 94%
    22:00 +22°C° 0.4 mm 1 m/s 664 mmHg 95%
    23:00 +22°C° 0 mm 1 m/s 664 mmHg 95%

    Après-demain, 22 Février, Samedi

    Heure Température Précipitation Vent Pression Humidité
    00:00 +22°C° 0 mm 1 m/s 664 mmHg 95%
    01:00 +22°C° 0 mm 1 m/s 664 mmHg 95%
    02:00 +21°C° 0 mm 1 m/s 664 mmHg 95%
    03:00 +19°C° 0 mm 0 m/s 663 mmHg 94%
    04:00 +19°C° 0 mm 0 m/s 663 mmHg 94%
    05:00 +20°C° 0 mm 0 m/s 664 mmHg 94%
    06:00 +20°C° 0 mm 0 m/s 664 mmHg 93%
    07:00 +20°C° 0 mm 0 m/s 665 mmHg 92%
    08:00 +22°C° 0.3 mm 0 m/s 665 mmHg 86%
    09:00 +25°C° 0.3 mm 0 m/s 666 mmHg 81%
    10:00 +27°C° 0.3 mm 0 m/s 667 mmHg 75%
    11:00 +27°C° 1.2 mm 0 m/s 666 mmHg 73%
    12:00 +29°C° 1.2 mm 1 m/s 665 mmHg 71%
    13:00 +30°C° 1.2 mm 1 m/s 664 mmHg 70%
    14:00 +29°C° 1.5 mm 1 m/s 664 mmHg 75%
    15:00 +28°C° 1.5 mm 2 m/s 663 mmHg 80%
    16:00 +27°C° 1.5 mm 2 m/s 663 mmHg 85%
    17:00 +26°C° 0.5 mm 2 m/s 663 mmHg 88%
    18:00 +24°C° 0.5 mm 1 m/s 663 mmHg 90%
    19:00 +23°C° 0.5 mm 1 m/s 663 mmHg 93%
    20:00 +23°C° 0 mm 1 m/s 664 mmHg 93%
    21:00 +22°C° 0 mm 1 m/s 664 mmHg 93%
    22:00 +22°C° 0 mm 1 m/s 664 mmHg 94%
    23:00 +22°C° 0 mm 1 m/s 664 mmHg 95%

    23 Février, Dimanche

    Heure Température Précipitation Vent Pression Humidité
    00:00 +21°C° 0 mm 1 m/s 664 mmHg 95%
    01:00 +21°C° 0 mm 1 m/s 664 mmHg 96%
    02:00 +21°C° 0 mm 1 m/s 664 mmHg 97%
    03:00 +21°C° 0 mm 1 m/s 664 mmHg 97%
    04:00 +21°C° 0 mm 1 m/s 664 mmHg 98%
    05:00 +20°C° 0 mm 2 m/s 664 mmHg 97%
    06:00 +20°C° 0 mm 2 m/s 664 mmHg 97%
    07:00 +21°C° 0 mm 3 m/s 665 mmHg 96%
    08:00 +21°C° 0.1 mm 3 m/s 665 mmHg 95%
    09:00 +21°C° 0.1 mm 3 m/s 666 mmHg 94%
    10:00 +21°C° 0.1 mm 3 m/s 666 mmHg 92%
    11:00 +22°C° 0.4 mm 3 m/s 665 mmHg 91%
    12:00 +23°C° 0.4 mm 2 m/s 665 mmHg 91%
    13:00 +23°C° 0.4 mm 2 m/s 664 mmHg 90%
    14:00 +23°C° 0 mm 2 m/s 664 mmHg 89%
    15:00 +23°C° 0 mm 2 m/s 664 mmHg 88%
    16:00 +23°C° 0 mm 2 m/s 664 mmHg 87%
    17:00 +23°C° 0 mm 2 m/s 664 mmHg 87%
    18:00 +22°C° 0 mm 1 m/s 664 mmHg 88%
    19:00 +22°C° 0 mm 1 m/s 664 mmHg 89%
    20:00 +21°C° 0 mm 1 m/s 665 mmHg 89%
    21:00 +20°C° 0 mm 2 m/s 665 mmHg 89%
    22:00 +20°C° 0 mm 2 m/s 665 mmHg 89%
    23:00 +20°C° 0 mm 2 m/s 665 mmHg 90%

    24 Février, Lundi

    Heure Température Précipitation Vent Pression Humidité
    00:00 +20°C° 0 mm 2 m/s 665 mmHg 91%
    01:00 +20°C° 0 mm 2 m/s 664 mmHg 92%
    02:00 +20°C° 0 mm 2 m/s 664 mmHg 93%
    03:00 +20°C° 0 mm 2 m/s 664 mmHg 94%
    04:00 +20°C° 0 mm 2 m/s 664 mmHg 95%
    05:00 +21°C° 0 mm 1 m/s 664 mmHg 94%
    06:00 +21°C° 0 mm 1 m/s 665 mmHg 94%
    07:00 +21°C° 0 mm 1 m/s 665 mmHg 94%
    08:00 +20°C° 0.2 mm 0 m/s 665 mmHg 92%
    09:00 +21°C° 0.2 mm 0 m/s 666 mmHg 89%
    10:00 +22°C° 0.2 mm 0 m/s 666 mmHg 86%
    11:00 +22°C° 0.6 mm 0 m/s 666 mmHg 87%
    12:00 +22°C° 0.6 mm 0 m/s 666 mmHg 88%
    13:00 +24°C° 0.6 mm 1 m/s 665 mmHg 88%
    14:00 +24°C° 0.7 mm 1 m/s 665 mmHg 89%
    15:00 +24°C° 0.7 mm 1 m/s 665 mmHg 90%
    16:00 +23°C° 0.7 mm 1 m/s 664 mmHg 90%
    17:00 +21°C° 1.1 mm 2 m/s 664 mmHg 92%
    18:00 +21°C° 1.1 mm 2 m/s 665 mmHg 94%
    19:00 +20°C° 1.1 mm 2 m/s 665 mmHg 95%
    20:00 +19°C° 0.2 mm 2 m/s 665 mmHg 96%
    21:00 +20°C° 0.2 mm 1 m/s 666 mmHg 97%
    22:00 +20°C° 0.2 mm 1 m/s 666 mmHg 97%
    23:00 +19°C° 0 mm 1 m/s 665 mmHg 98%

    25 Février, Mardi

    Heure Température Précipitation Vent Pression Humidité
    00:00 +19°C° 0 mm 1 m/s 665 mmHg 98%
    01:00 +19°C° 0 mm 1 m/s 664 mmHg 98%
    02:00 +19°C° 0 mm 1 m/s 664 mmHg 98%
    03:00 +19°C° 0 mm 1 m/s 664 mmHg 98%
    04:00 +19°C° 0 mm 1 m/s 664 mmHg 98%
    05:00 +19°C° 0 mm 1 m/s 664 mmHg 98%
    06:00 +18°C° 0 mm 0 m/s 664 mmHg 98%
    07:00 +18°C° 0 mm 0 m/s 665 mmHg 98%
    08:00 +18°C° 0 mm 0 m/s 665 mmHg 96%
    09:00 +19°C° 0 mm 0 m/s 665 mmHg 95%
    10:00 +20°C° 0 mm 0 m/s 666 mmHg 93%
    11:00 +20°C° 0 mm 0 m/s 666 mmHg 90%
    12:00 +21°C° 0 mm 0 m/s 665 mmHg 87%
    13:00 +22°C° 0 mm 0 m/s 665 mmHg 83%
    14:00 +25°C° 0 mm 1 m/s 665 mmHg 78%
    15:00 +25°C° 0 mm 1 m/s 664 mmHg 73%
    16:00 +26°C° 0 mm 1 m/s 664 mmHg 68%
    17:00 +25°C° 0.1 mm 1 m/s 664 mmHg 75%
    18:00 +23°C° 0.1 mm 1 m/s 664 mmHg 82%
    19:00 +21°C° 0.1 mm 1 m/s 663 mmHg 90%
    20:00 +20°C° 0 mm 1 m/s 664 mmHg 90%
    21:00 +20°C° 0 mm 1 m/s 664 mmHg 91%
    22:00 +17°C° 0 mm 0 m/s 665 mmHg 92%
    23:00 +17°C° 0 mm 0 m/s 664 mmHg 92%
    Voir plus